Погода в Доно

Россия / Забайкальский край     50°53′31″N   118°35′43″E
темп.,
°C
ветер,
м/с
пор.,
м/с
влажн.,
%
обл.,
%
осадки,
мм/ч
давл.,
гПа
погр.,
м
20 апреля, вт
вт2000:00−4ссв11155 0.0 102210
03:00−4ююв22165 0.0 102014
06:00−5ююв22175 0.0 101924
09:00+2ю4121662 0.0 1015628
12:00+9ююз7111968 0.0 10101014
15:00+15юз71119100 0.0 10051668
18:00+17з591866 0.0 10032764
21:00+10ююв2234100 0.0 100511
21 апреля, ср
ср2100:00+8ююв2239100 0.0 100512
03:00+7ю2241100 0.1 100525
06:00+6ююв22435 0.0 100516
09:00+12ююв352856 0.0 1003278
12:00+18ю57201 0.0 10021039
15:00+22ююз57140 0.0 9992379
18:00+21з57120 0.0 9992749
21:00+13с22335 0.0 100315
22 апреля, чт
чт2200:00+10ссз334229 0.0 100433
03:00+7ссз455090 0.0 1005101
06:00+4с41062100 0.0 1009485
09:00+6ссз51059100 0.0 1012630
12:00+9ссз6748100 0.0 10141088
15:00+11ссз554097 0.0 10151414
18:00+8с56394 0.0 10181256
21:00+4ссв38455 0.0 1023279
23 апреля, пт
пт2300:00+1св51051100 0.0 1028658
03:00−1св41065100 0.0 1031694
06:00−2ссв4949100 0.0 1034693
09:00−2ссв4732100 0.0 1037798
12:00+3ссв462381 0.0 10361486
15:00+5с451530 0.0 10351849
18:00+4с561588 0.0 10361605
21:000с222349 0.0 103928
24 апреля, сб
сб2400:00−2сз222799 0.0 104111
03:00−3сз223453 0.0 104112
06:00−4зсз223790 0.0 104118
09:00+3сз37180 0.0 1039809
12:00+8сз46170 0.0 10351457
15:00+11ссз46150 0.0 10322141
18:00+10ссз57120 0.0 10302133
21:00+4сз22220 0.0 103214